User: anonymous   Login
Location: Ay?beleni
(36.6500°N, 30.3000°E)
Time: 16:45:17
(UTC+00:00)
Language:

YAOGAN 1 - Orbit

View from above orbital plane
View from above orbital plane
View from above satellite
View from above satellite

Ground track
Ground track

The orbit data is extracted from the following two-line orbital elements,

1 29092U 06015A   20196.30438272  .00000040  00000-0  11473-4 0  9995
2 29092  97.9390 220.4688 0001506  90.2853 269.8533 14.83074297768811
Epoch (UTC): 14 July 2020 07:18:18
Eccentricity: 0.0001506
inclination: 97.9390°
perigee height: 618 km
apogee height: 620 km
right ascension of ascending node: 220.4688°
argument of perigee: 90.2853°
revolutions per day: 14.83074297
mean anomaly at epoch: 269.8533°
orbit number at epoch: 76881

The dashed part of the orbit path shows where the satellite is in the earth's shadow,  

DLR